Find Starlink 11166

NORAD ID: 60062 Int'l Des: 2024-113 Owner: SPXS Country: US Constellation: starlink operational
LEOCIRCULAR

当前视图

正在加载3D地球...

About Starlink 11166

Starlink 11166 (NORAD 60062) is a starlink constellation satellite (v2 mini d2c) launched Jun 19, 2024 by SPXS of US. It operates in LEO, CIRCULAR orbit with a mass of 960.00 kg.

关于 Starlink 11166

正在加载描述...

即将过境

Passes for default location (London). Set your location on the main map for personalized predictions.

高度历史

Loading altitude history...

两行轨道根数

1 60062U 24113D 26168.85372635 .00000126 00000-0 59006-5 0 9991
2 60062 53.1572 57.4017 0001106 100.9772 259.1371 15.69711933115298
Epoch: Jun 17, 2026 • Age: 14 hours

当前状态

高度 365.5 km
速度 7.70 km/s
星下点 53.26°N, 81.84°E
发射日期 Jun 19, 2024
运行时间 1.9 years
类型 internet

技术详情

分类 Payload
质量 960.00 kg
干质量 910.00 kg
总质量 960.00 kg
长度 0.30 m
直径 4.10 m
跨度 29.00 m
形状 Box + pan
制造商 SPXS
平台类型 Starlink V2MD
阶段状态 In Orbit
所有者/国家 SPXS/US

Most Searched